CW7283 Weather Reports


Display with metric or nautical units.
time (UTC)temp
F
wind
direction
speed
MPH
gust
MPH
rain 1hr
in
rain 24hr
in
rain mn
in
humidity
%
barometer
mb
20260507083334 32 225 0.0 0.0 0.00 0.00 0.00 73 1008.8
20260507081903 33 225 0.0 0.0 0.00 0.00 0.00 71 1008.8
20260507080345 33 225 0.0 0.0 0.00 0.00 0.00 72 1008.8
20260507074833 33 225 0.0 0.0 0.00 0.00 0.00 72 1009.0
20260507073328 33 225 0.0 0.0 0.00 0.00 0.00 71 1009.0
20260507071833 33 225 0.0 0.0 0.00 0.00 0.00 71 1009.4
20260507070325 33 226 0.0 0.0 0.00 0.00 0.00 69 1009.5
20260507064843 34 229 0.0 0.0 0.00 0.00 0.00 69 1009.4
20260507063339 34 240 0.0 0.0 0.00 0.00 0.00 68 1009.2
20260507061910 34 240 0.0 0.0 0.00 0.00 0.00 68 1009.5
20260507060329 34 240 0.0 0.0 0.00 0.00 0.00 68 1009.5
20260507054835 36 229 0.0 0.0 0.00 0.00 0.00 65 1009.3
20260507053401 37 225 0.0 0.0 0.00 0.00 0.00 64 1009.3
20260507051829 37 226 0.0 0.0 0.00 0.00 0.00 64 1009.3
20260507050341 37 226 0.0 0.0 0.00 0.00 0.00 63 1009.6
20260507044843 38 226 0.0 0.0 0.00 0.00 0.00 61 1010.0
20260507043335 40 221 0.0 0.0 0.00 0.00 0.00 58 1009.9
20260507041855 42 223 0.0 0.0 0.00 0.00 0.00 55 1009.9
20260507040346 43 223 0.0 0.0 0.00 0.00 0.00 53 1009.9
20260507034844 44 223 0.0 0.0 0.00 0.00 0.00 51 1009.8
20260507033356 44 134 0.0 1.0 0.00 0.00 0.00 49 1009.5
20260507031854 45 150 0.0 1.0 0.00 0.00 0.00 48 1009.5
20260507030327 46 206 0.0 0.0 0.00 0.00 0.00 47 1009.5
20260507024842 47 143 0.0 0.0 0.00 0.00 0.00 44 1009.4
20260507023334 49 142 0.0 0.0 0.00 0.00 0.00 42 1009.4
20260507021829 50 163 0.0 0.0 0.00 0.00 0.00 40 1009.5
20260507020354 51 173 0.0 2.0 0.00 0.00 0.00 38 1009.5
20260507014841 51 153 0.0 2.0 0.00 0.00 0.00 37 1009.6
20260507013351 52 236 0.0 3.0 0.00 0.00 0.00 36 1009.6
20260507011836 53 190 0.0 2.0 0.00 0.00 0.00 34 1009.8
20260507010336 53 171 0.0 2.0 0.00 0.00 0.00 33 1010.0
20260507004823 54 132 0.0 2.0 0.00 0.00 0.00 32 1010.1
20260507003352 55 238 0.0 3.0 0.00 0.00 0.00 31 1010.5
20260507001847 56 115 0.0 2.0 0.00 0.00 0.00 29 1010.6
20260507000336 58 198 0.0 0.0 0.00 0.00 0.00 28 1010.7
20260506234854 57 248 0.0 0.0 0.00 0.00 0.00 27 1010.8
20260506233333 56 230 0.0 0.0 0.00 0.00 0.00 27 1011.1
20260506231842 56 71 0.0 0.0 0.00 0.00 0.00 27 1011.2
20260506230352 56 175 0.0 2.0 0.00 0.00 0.00 27 1011.3
20260506224844 57 311 0.0 1.0 0.00 0.00 0.00 28 1011.7
20260506223405 56 163 0.0 3.0 0.00 0.00 0.00 28 1011.8
20260506221833 57 263 0.0 2.0 0.00 0.00 0.00 28 1012.1
20260506220349 57 187 0.0 3.0 0.00 0.00 0.00 28 1012.3
20260506214832 57 21 0.0 0.0 0.00 0.00 0.00 30 1012.4
20260506213344 56 213 0.0 2.0 0.00 0.00 0.00 28 1012.6
20260506211840 55 292 0.0 2.0 0.00 0.00 0.00 28 1013.1
20260506210345 55 301 0.0 2.0 0.00 0.00 0.00 29 1013.3
20260506204903 55 334 0.0 0.0 0.00 0.00 0.00 29 1013.6
20260506203344 54 193 0.0 2.0 0.00 0.00 0.00 28 1013.9
20260506201852 52 222 0.0 3.0 0.00 0.00 0.00 29 1014.2
20260506200328 52 345 1.0 4.0 0.00 0.00 0.00 30 1014.1
20260506194847 51 341 0.0 4.0 0.00 0.00 0.00 31 1014.2
20260506193344 51 307 0.0 4.0 0.00 0.00 0.00 31 1014.5
20260506191831 51 321 0.0 2.0 0.00 0.00 0.00 32 1014.8
20260506190339 50 255 0.0 5.0 0.00 0.00 0.00 30 1014.9
20260506184843 49 252 0.0 6.0 0.00 0.00 0.00 32 1015.2
20260506183405 49 246 0.0 2.0 0.00 0.00 0.00 32 1015.3
20260506181847 49 271 0.0 6.0 0.00 0.00 0.00 33 1015.8
20260506180331 48 248 0.0 4.0 0.00 0.00 0.00 34 1016.0
20260506174827 48 29 1.0 8.0 0.00 0.00 0.00 34 1016.2
20260506173350 47 17 1.0 6.0 0.00 0.00 0.00 33 1016.5
20260506171857 46 227 0.0 3.0 0.00 0.00 0.00 34 1016.5
20260506170338 46 330 0.0 4.0 0.00 0.00 0.00 35 1016.7
20260506164901 44 5 3.0 8.0 0.00 0.00 0.00 36 1016.8
20260506163332 44 82 0.0 5.0 0.00 0.00 0.00 38 1017.1
20260506161846 43 308 3.0 9.0 0.00 0.00 0.00 39 1017.1
20260506160322 42 13 4.0 7.0 0.00 0.00 0.00 40 1017.3
20260506154838 41 355 1.0 5.0 0.00 0.00 0.00 40 1017.7
20260506153348 40 355 0.0 2.0 0.00 0.00 0.00 45 1017.8
20260506151839 39 33 0.0 2.0 0.00 0.00 0.00 48 1018.0
20260506150340 36 123 0.0 2.0 0.00 0.00 0.00 55 1018.2
20260506144900 33 167 0.0 0.0 0.00 0.00 0.00 58 1018.3
20260506143334 30 180 0.0 1.0 0.00 0.00 0.00 62 1018.3
20260506141852 28 140 0.0 2.0 0.00 0.00 0.00 67 1018.5
20260506140401 26 122 0.0 0.0 0.00 0.00 0.00 70 1018.6
20260506134829 24 136 0.0 0.0 0.00 0.00 0.00 76 1018.7
20260506133347 23 71 0.0 0.0 0.00 0.00 0.00 77 1018.7
20260506131850 22 36 0.0 0.0 0.00 0.00 0.00 79 1018.7
20260506130352 21 333 0.0 0.0 0.00 0.00 0.00 79 1018.8
20260506124826 20 333 0.0 0.0 0.00 0.00 0.00 82 1018.5
20260506123327 19 333 0.0 0.0 0.00 0.00 0.00 83 1018.4
20260506121852 19 334 0.0 0.0 0.00 0.00 0.00 84 1018.4
20260506120351 19 334 0.0 0.0 0.00 0.00 0.00 81 1018.4
20260506114853 18 334 0.0 0.0 0.00 0.00 0.00 81 1018.3
20260506113414 19 334 0.0 0.0 0.00 0.00 0.00 80 1018.3
20260506111832 19 334 0.0 0.0 0.00 0.00 0.00 80 1018.3
20260506110327 19 334 0.0 0.0 0.00 0.00 0.00 80 1018.3
20260506104841 19 334 0.0 0.0 0.00 0.00 0.00 80 1018.3
20260506103347 18 334 0.0 0.0 0.00 0.00 0.00 80 1018.3
20260506101826 19 334 0.0 0.0 0.00 0.00 0.00 79 1018.3
20260506100356 20 270 0.0 0.0 0.00 0.00 0.00 78 1018.3
20260506094832 21 232 0.0 0.0 0.00 0.00 0.00 79 1018.3
20260506093348 21 232 0.0 0.0 0.00 0.00 0.00 78 1018.3
20260506091838 22 232 0.0 0.0 0.00 0.00 0.00 78 1018.3
20260506090327 22 232 0.0 0.0 0.00 0.00 0.00 78 1018.3
20260506084845 22 232 0.0 0.0 0.00 0.00 0.00 77 1018.3